Вернуться в каталог

STARLINK-36819

АктивенСвязьSSO
NORAD 67967·PAYLOAD·🇺🇸 United States

Запущен Feb 25, 2026 с Vandenberg Space Force Base

Loading…

Ближайшие Пролёты (ближайшие 24 часа)

TLE

СвежийSource: CelesTrak SupGP

Эпоха: Sep 15, 2026, 03:56 UTC

1 67967C 26038G   26258.16437500 -.00063203  00000+0 -19626-2 0  2582
2 67967  97.2845 266.5496 0001567  89.1899 278.2673 15.33461265    15

Отслеживайте STARLINK-36819 в реальном времени с AllMySat

Download on the App Store